Flag for United Kingdom Weather past 2 weeks in London, England, United Kingdom

Now
73 °F

Clear.


Feels Like: 76 °F
Forecast: 66 / 79 °F
Wind: 8 mph from Southwest

Location: Northolt

Current Time: Jul 2, 2015 at 12:17:30 AM

Latest Report: Jul 1, 2015 at 11:50 PM


Visibility: 10 mi

Pressure: 29.92 "Hg

Humidity: 69%

Dew point: 63 °F

Location of LondonLocation

Historic Weather in London — Graph

°F

London temperature yesterday

Maximum temperature yesterday: 95 °F (at 2:50 PM)
Minimum temperature yesterday: 68 °F (at 5:50 AM)
Average temperature yesterday: 82 °F

Past Weeks' High & Low Weather Summary

 TemperatureHumidityPressure
High95 °F (Jul 1, 2:50 PM)94% (Jun 20, 6:50 PM)30.27 "Hg (Jun 20, 6:50 PM)
Low48 °F (Jun 19, 4:50 AM)26% (Jul 1, 2:50 PM)29.77 "Hg (Jun 22, 1:50 PM)
Average65 °F65%30.07 "Hg
* Reported Jun 16 10:50 PM — Jul 1 10:50 PM, London, Weather by CustomWeather, © 2015

Note: Actual official high and low records may vary slightly from our data, if they occured in-between our weather recording intervals... More about our weather records

Advertising

London weather history for previous 24 hours

 ConditionsComfort  
Time TempWeatherWind HumidityBarometerVisibility
10:50 PM
Wed, Jul 1
77 °FClear.9 mph61%29.92 "Hg10 mi
9:50 PM81 °FSunny.8 mph58%29.89 "Hg10 mi
8:50 PM82 °FSunny.10 mph51%29.86 "Hg10 mi
7:50 PM88 °FSunny.9 mph38%29.83 "Hg10 mi
6:50 PM90 °FSunny.13 mph36%29.83 "Hg10 mi
5:50 PM93 °FSunny.15 mph32%29.80 "Hg10 mi
4:50 PM95 °FSunny.14 mph30%29.83 "Hg10 mi
3:50 PM93 °FSunny.16 mph32%29.83 "Hg10 mi
2:50 PM95 °FSunny.16 mph26%29.83 "Hg10 mi
1:50 PM91 °FSunny.17 mph34%29.83 "Hg10 mi
12:50 PM86 °FSunny.12 mph38%29.86 "Hg10 mi
11:50 AM91 °FSunny.16 mph32%29.86 "Hg10 mi
10:50 AM91 °FSunny.16 mph32%29.86 "Hg10 mi
9:50 AM88 °FSunny.12 mph38%29.86 "Hg10 mi
8:50 AM82 °FSunny.10 mph48%29.89 "Hg10 mi
7:50 AM77 °FSunny.8 mph57%29.89 "Hg10 mi
6:50 AM72 °FSunny.8 mph65%29.89 "Hg10 mi
5:50 AM68 °FSunny.5 mph73%29.92 "Hg10 mi
4:50 AM70 °FClear.6 mph69%29.92 "Hg10 mi
3:50 AM70 °FPassing clouds.6 mph64%29.92 "HgN/A
2:50 AM72 °FPartly cloudy.10 mph61%29.89 "HgN/A
1:50 AM70 °FClear.12 mph64%29.92 "Hg10 mi
12:50 AM70 °FClear.9 mph64%29.95 "Hg10 mi
Weather by CustomWeather, © 2015

See weather overviewHow to use our weather pages